Weather History for Bishop, CA

Change the Weather History Date:

Monday, February 18, 2013

  Actual Average Record
Temperature  
Mean Temperature 39 °F 43 °F  
Max Temperature 62 °F 59 °F 75 °F (1977)
Min Temperature 16 °F 27 °F 15 °F (1944)
Degree Days  
Heating Degree Days 26 22  
Month to date heating degree days 407 428  
Since 1 July heating degree days 2949 2997  
Cooling Degree Days 0 0  
Month to date cooling degree days 0 0  
Year to date cooling degree days 0 0  
Moisture  
Dew Point 10 °F    
Average Humidity 35    
Maximum Humidity 56    
Minimum Humidity 14    
Precipitation  
Precipitation 0.00 in 0.03 in 1.24 in (1993)
Month to date precipitation 0.00 0.53  
Year to date precipitation T 1.58  
Snow  
Snow 0.00 in 0.00 in T in (1994)
Month to date snowfall 0.0 0.1  
Since 1 July snowfall 2.8 5.9  
Snow Depth 0.00 in    
Sea Level Pressure  
Sea Level Pressure 29.87 in    
Wind  
Wind Speed 9 mph (South)    
Max Wind Speed 26 mph    
Max Gust Speed 33 mph    
Visibility 10 miles    
Events      
T = Trace of Precipitation, MM = Missing Value Source: NWS Daily Summary

Daily Weather History Graph

Daily Weather History Graph

Search for Another Location

Airport:

Trip Planner

Search our weather history database for the weather conditions in past years. The results will help you decide how hot, cold, wet, or windy it might be!

Date:

Astronomy

Feb. 18, 2013 Rise Set
Actual Time 6:38 AM PST 5:36 PM PST
Civil Twilight 6:12 AM PST 6:03 PM PST
Nautical Twilight 5:41 AM PST 6:33 PM PST
Astronomical Twilight 5:11 AM PST 7:03 PM PST
Moon 11:29 AM PST (2/18) 1:19 AM PST (2/18)
Length of Visible Light 11h 51m
Length of Day
10h 58m
First Quarter, 59% of the Moon is Illuminated
Feb 18
First Quarter
Feb 25
Full
Mar 4
Last Quarter
Mar 11
New
Mar 19
First Quarter

Hourly Weather History & Observations

Time (PST) Temp. Windchill Dew Point Humidity Pressure Visibility Wind Dir Wind Speed Gust Speed Precip Events Conditions
12:56 AM 30.0 °F 26.5 °F 7.0 °F 38% 29.94 in 10.0 mi North 3.5 mph - N/A   Clear
1:56 AM 26.1 °F 16.2 °F 6.1 °F 43% 29.96 in 10.0 mi NW 10.4 mph - N/A   Clear
2:56 AM 21.9 °F 13.4 °F 3.9 °F 46% 29.96 in 10.0 mi WNW 6.9 mph - N/A   Clear
3:56 AM 26.1 °F 18.4 °F 7.0 °F 44% 29.95 in 10.0 mi NW 6.9 mph - N/A   Clear
4:56 AM 21.0 °F - 6.1 °F 53% 29.97 in 10.0 mi Calm Calm - N/A   Clear
5:56 AM 19.0 °F 9.0 °F 6.1 °F 57% 29.99 in 10.0 mi NW 8.1 mph - N/A   Clear
6:56 AM 21.0 °F 16.2 °F 7.0 °F 55% 30.00 in 10.0 mi North 3.5 mph - N/A   Clear
7:56 AM 30.9 °F - 10.0 °F 42% 30.00 in 10.0 mi Calm Calm - N/A   Clear
8:56 AM 39.9 °F - 12.9 °F 33% 29.98 in 10.0 mi Calm Calm - N/A   Clear
9:56 AM 48.0 °F - 12.9 °F 24% 29.98 in 10.0 mi Variable 3.5 mph - N/A   Clear
10:56 AM 52.0 °F - 10.9 °F 19% 29.95 in 10.0 mi Variable 5.8 mph - N/A   Clear
11:56 AM 57.9 °F - 10.9 °F 16% 29.90 in 10.0 mi SSE 16.1 mph 24.2 mph N/A   Clear
12:56 PM 57.9 °F - 10.0 °F 15% 29.85 in 10.0 mi SSE 16.1 mph 25.3 mph N/A   Clear
1:56 PM 60.1 °F - 10.0 °F 14% 29.82 in 10.0 mi SSE 23.0 mph 28.8 mph N/A   Clear
2:56 PM 61.0 °F - 10.0 °F 13% 29.79 in 10.0 mi SSE 21.9 mph 29.9 mph N/A   Clear
3:56 PM 60.1 °F - 10.0 °F 14% 29.75 in 10.0 mi South 18.4 mph 26.5 mph N/A   Clear
4:56 PM 57.9 °F - 10.0 °F 15% 29.75 in 10.0 mi SSE 20.7 mph 28.8 mph N/A   Clear
5:56 PM 54.0 °F - 12.0 °F 19% 29.78 in 10.0 mi SE 16.1 mph 21.9 mph N/A   Clear
6:56 PM 51.1 °F - 14.0 °F 23% 29.79 in 10.0 mi SE 11.5 mph - N/A   Clear
7:56 PM 48.9 °F - 15.1 °F 26% 29.76 in 10.0 mi SSE 9.2 mph - N/A   Clear
8:56 PM 45.0 °F 42.6 °F 15.1 °F 30% 29.74 in 10.0 mi SSE 4.6 mph - N/A   Clear
9:56 PM 39.0 °F 33.4 °F 14.0 °F 36% 29.74 in 10.0 mi North 8.1 mph - N/A   Clear
10:56 PM 33.8 °F 27.7 °F 10.4 °F 38% 29.77 in 10.0 mi North 6.9 mph - N/A   Clear
11:56 PM 28.9 °F 23.9 °F 10.9 °F 47% 29.72 in 10.0 mi Variable 4.6 mph - N/A   Clear